Anniston, AL

5:52 PM CDT on September 19, 2017 (GMT -0500)
Anniston Metro

Weather History for KANB - October, 2013

Change the Weather History Date:

Tuesday, October 15, 2013

  Actual Average Record
Temperature  
Mean Temperature 65 °F 63 °F  
Max Temperature 72 °F 75 °F 87 °F (1962)
Min Temperature 58 °F 52 °F 32 °F (1978)
Degree Days  
Heating Degree Days 0    
Month to date heating degree days 0  
Since 1 July heating degree days 0  
Growing Degree Days 14 (Base 50)    
Moisture  
Dew Point 59 °F    
Average Humidity 82    
Maximum Humidity 97    
Minimum Humidity 66    
Precipitation  
Precipitation 0.00 in 0.10 in 1.80 in (1964)
Month to date precipitation 1.96 1.45  
Year to date precipitation 62.45 39.30  
Sea Level Pressure  
Sea Level Pressure 30.09 in    
Wind  
Wind Speed 4 mph (ENE)    
Max Wind Speed 10 mph    
Max Gust Speed 14 mph    
Visibility 10 miles    
Events      
T = Trace of Precipitation, MM = Missing Value Source: NWS Daily Summary

Daily Weather History Graph

Daily Weather History Graph

Search for Another Location

Airport or City:

Trip Planner

Search our weather history database for the weather conditions in past years. The results will help you decide how hot, cold, wet, or windy it might be!

Date:

Astronomy

Oct. 15, 2013 Rise Set
Actual Time 6:48 AM CDT 6:09 PM CDT
Civil Twilight 6:23 AM CDT 6:34 PM CDT
Nautical Twilight 5:54 AM CDT 7:03 PM CDT
Astronomical Twilight 5:25 AM CDT 7:32 PM CDT
Moon 4:06 PM CDT (10/15) 3:19 AM CDT (10/15)
Length of Visible Light 12h 11m
Length of Day
11h 21m
Waxing Gibbous, 88% of the Moon is Illuminated
Oct 15
Waxing Gibbous
Oct 18
Full
Oct 26
Last Quarter
Nov 3
New
Nov 9
First Quarter

Hourly Weather History & Observations

Time (CDT) Temp. Dew Point Humidity Pressure Visibility Wind Dir Wind Speed Gust Speed Precip Events Conditions
12:53 AM 61.0 °F 59.0 °F 93% 30.13 in 10.0 mi East 3.5 mph - N/A   Clear
1:53 AM 60.1 °F 59.0 °F 96% 30.13 in 10.0 mi ENE 3.5 mph - N/A   Clear
2:53 AM 60.1 °F 57.9 °F 93% 30.11 in 10.0 mi ESE 3.5 mph - N/A   Clear
3:53 AM 60.1 °F 57.9 °F 93% 30.12 in 10.0 mi Calm Calm - N/A   Clear
4:53 AM 57.9 °F 55.9 °F 93% 30.12 in 10.0 mi Calm Calm - N/A   Scattered Clouds
5:53 AM 60.1 °F 57.9 °F 93% 30.13 in 10.0 mi Calm Calm - N/A   Overcast
6:53 AM 61.0 °F 57.9 °F 90% 30.13 in 10.0 mi Calm Calm - N/A   Overcast
7:53 AM 61.0 °F 59.0 °F 93% 30.13 in 10.0 mi Calm Calm - N/A   Overcast
8:53 AM 64.0 °F 60.1 °F 87% 30.14 in 10.0 mi ENE 5.8 mph - N/A   Overcast
9:53 AM 68.0 °F 61.0 °F 78% 30.12 in 10.0 mi NE 6.9 mph - N/A   Overcast
10:53 AM 71.1 °F 59.0 °F 66% 30.11 in 10.0 mi East 8.1 mph - N/A   Mostly Cloudy
11:53 AM 71.1 °F 59.0 °F 66% 30.09 in 10.0 mi East 5.8 mph - N/A   Overcast
12:53 PM 71.1 °F 59.0 °F 66% 30.08 in 10.0 mi East 4.6 mph - N/A   Overcast
1:53 PM 72.0 °F 59.0 °F 64% 30.05 in 10.0 mi ENE 3.5 mph - N/A   Overcast
2:53 PM 71.1 °F 59.0 °F 66% 30.05 in 10.0 mi Calm Calm - N/A   Overcast
3:53 PM 71.1 °F 59.0 °F 66% 30.04 in 10.0 mi ENE 4.6 mph - N/A   Overcast
4:53 PM 71.1 °F 59.0 °F 66% 30.04 in 10.0 mi NE 5.8 mph - N/A   Overcast
5:53 PM 69.1 °F 60.1 °F 73% 30.04 in 10.0 mi ENE 5.8 mph - N/A   Overcast
6:53 PM 66.0 °F 60.1 °F 81% 30.05 in 10.0 mi ENE 3.5 mph - N/A   Clear
7:53 PM 64.9 °F 60.1 °F 84% 30.06 in 10.0 mi Calm Calm - N/A   Clear
8:53 PM 64.9 °F 60.1 °F 84% 30.07 in 10.0 mi NNE 4.6 mph - N/A   Overcast
9:53 PM 64.0 °F 59.0 °F 84% 30.07 in 10.0 mi NE 5.8 mph - N/A   Overcast
10:53 PM 63.0 °F 59.0 °F 87% 30.07 in 10.0 mi NNE 4.6 mph - N/A   Clear
11:53 PM 63.0 °F 59.0 °F 87% 30.05 in 10.0 mi NE 4.6 mph - N/A   Clear